CW5306 Weather Reports


Display with metric or nautical units.
time (UTC)temp
F
wind
direction
speed
MPH
gust
MPH
rain 1hr
in
rain 24hr
in
rain mn
in
humidity
%
barometer
mb
20260905180340 79 105 8.0 16.0 0.00 0.01 0.01 78 1011.7
20260905180111 79 84 4.0 16.0 0.00 0.01 0.01 78 1011.7
20260905175340 79 92 4.0 15.0 0.00 0.01 0.01 80 1011.5
20260905175110 79 82 8.0 16.0 0.00 0.01 0.01 80 1011.8
20260905174340 78 107 7.0 16.0 0.00 0.01 0.01 82 1011.5
20260905174110 78 139 7.0 15.0 0.00 0.01 0.01 81 1011.6
20260905173340 78 69 11.0 20.0 0.00 0.01 0.01 81 1011.4
20260905172842 78 79 9.0 20.0 0.00 0.01 0.01 82 1011.4
20260905172340 78 58 11.0 16.0 0.00 0.01 0.01 81 1011.2
20260905171840 78 66 8.0 16.0 0.00 0.01 0.01 81 1011.5
20260905171345 78 90 8.0 16.0 0.00 0.01 0.01 80 1011.4
20260905171340 78 100 8.0 15.0 0.00 0.01 0.01 81 1011.2
20260905170610 78 74 9.0 16.0 0.00 0.01 0.01 79 1011.5
20260905165839 78 114 4.0 17.0 0.00 0.01 0.01 78 1011.3
20260905165340 78 127 9.0 17.0 0.00 0.01 0.01 80 1011.3
20260905164839 78 70 10.0 16.0 0.00 0.01 0.01 81 1011.1
20260905164625 78 80 7.0 16.0 0.00 0.01 0.01 81 1011.1
20260905164111 77 113 8.0 16.0 0.00 0.01 0.01 82 1011.0
20260905163339 77 81 6.0 21.0 0.00 0.01 0.01 81 1011.0
20260905162839 77 91 10.0 21.0 0.00 0.01 0.01 81 1011.0
20260905162340 77 66 9.0 17.0 0.00 0.01 0.01 80 1011.0
20260905161840 77 105 5.0 15.0 0.00 0.01 0.01 81 1011.0
20260905161340 76 81 8.0 15.0 0.00 0.01 0.01 81 1010.9
20260905160840 76 89 4.0 16.0 0.00 0.01 0.01 82 1011.1
20260905160339 76 116 11.0 16.0 0.00 0.01 0.01 83 1010.8
20260905155840 76 86 10.0 14.0 0.00 0.01 0.01 83 1010.9
20260905155340 76 56 3.0 14.0 0.00 0.01 0.01 83 1011.0
20260905154840 76 93 2.0 14.0 0.00 0.01 0.01 83 1011.2
20260905154339 76 132 5.0 15.0 0.00 0.02 0.01 83 1010.9
20260905154111 76 102 3.0 15.0 0.00 0.02 0.01 83 1011.0
20260905153341 77 98 9.0 14.0 0.00 0.02 0.01 82 1011.1
20260905152839 77 100 9.0 14.0 0.00 0.02 0.01 83 1011.3
20260905152341 77 83 7.0 13.0 0.00 0.02 0.01 82 1011.2
20260905151840 77 108 6.0 14.0 0.00 0.02 0.01 82 1011.2
20260905151611 76 32 9.0 14.0 0.00 0.02 0.01 81 1010.7
20260905150842 76 110 5.0 15.0 0.00 0.02 0.01 81 1010.9
20260905150611 76 85 6.0 15.0 0.00 0.02 0.01 81 1011.0
20260905150117 76 115 4.0 16.0 0.00 0.02 0.01 82 1011.0
20260905145840 76 105 6.0 16.0 0.00 0.02 0.01 81 1011.0
20260905144839 76 49 11.0 16.0 0.00 0.02 0.01 82 1011.1
20260905144340 76 94 12.0 19.0 0.01 0.02 0.01 82 1010.9
20260905143841 76 74 11.0 19.0 0.01 0.02 0.01 82 1010.9
20260905143340 76 108 6.0 17.0 0.01 0.02 0.01 82 1010.9
20260905142845 76 58 12.0 20.0 0.01 0.02 0.01 81 1011.2
20260905142839 76 122 6.0 20.0 0.01 0.02 0.01 82 1011.0
20260905141840 76 78 11.0 19.0 0.01 0.02 0.01 81 1011.0
20260905141611 76 67 4.0 20.0 0.01 0.02 0.01 82 1011.1
20260905140840 76 102 7.0 20.0 0.01 0.02 0.01 81 1011.0
20260905140340 76 102 8.0 20.0 0.01 0.02 0.01 81 1010.9
20260905140110 76 94 7.0 16.0 0.01 0.02 0.01 82 1011.1
20260905135610 76 84 9.0 16.0 0.01 0.02 0.01 83 1010.9
20260905134841 76 95 6.0 19.0 0.01 0.02 0.01 86 1011.0
20260905134340 76 91 10.0 21.0 0.00 0.02 0.00 84 1011.1
20260905134111 76 59 6.0 21.0 0.00 0.02 0.00 84 1011.2
20260905133341 76 72 4.0 17.0 0.00 0.02 0.00 84 1011.3
20260905132840 76 58 6.0 19.0 0.00 0.02 0.00 84 1011.3
20260905132339 76 68 8.0 20.0 0.00 0.02 0.00 84 1011.2
20260905132111 76 43 8.0 20.0 0.00 0.02 0.00 84 1011.1
20260905131340 76 64 7.0 17.0 0.00 0.02 0.00 85 1011.3
20260905130839 76 69 9.0 20.0 0.00 0.02 0.00 85 1011.4
20260905130327 76 55 6.0 20.0 0.00 0.02 0.00 83 1011.3
20260905125827 77 62 9.0 20.0 0.00 0.02 0.00 83 1011.4
20260905125559 77 91 11.0 19.0 0.00 0.02 0.00 81 1011.3
20260905125434 77 60 9.0 20.0 0.00 0.02 0.00 82 1011.2
20260905124558 77 67 10.0 20.0 0.00 0.02 0.00 81 1011.4
20260905123829 77 85 8.0 20.0 0.00 0.02 0.00 81 1011.4
20260905123327 77 40 10.0 20.0 0.00 0.02 0.00 80 1011.2
20260905122828 77 73 8.0 20.0 0.00 0.02 0.00 81 1011.3
20260905122328 77 63 10.0 20.0 0.00 0.02 0.00 81 1011.5
20260905122058 77 96 9.0 20.0 0.00 0.02 0.00 81 1011.3
20260905121604 77 61 5.0 21.0 0.00 0.02 0.00 80 1011.5
20260905121327 77 45 9.0 20.0 0.00 0.02 0.00 80 1011.5
20260905120315 77 54 12.0 19.0 0.00 0.03 0.00 79 1011.8
20260905115815 77 139 14.0 19.0 0.00 0.03 0.00 78 1011.8
20260905115306 77 100 6.0 17.0 0.00 0.03 0.00 79 1011.9
20260905114803 77 100 8.0 17.0 0.00 0.03 0.00 79 1012.0
20260905114303 77 66 3.0 20.0 0.00 0.03 0.00 78 1011.9
20260905113804 77 84 11.0 20.0 0.00 0.03 0.00 79 1012.2
20260905113304 77 52 4.0 19.0 0.00 0.03 0.00 81 1012.1
20260905112804 77 33 10.0 20.0 0.00 0.03 0.00 80 1012.2
20260905112535 77 91 5.0 20.0 0.00 0.03 0.00 80 1011.9
20260905112254 77 72 8.0 20.0 0.00 0.03 0.00 79 1012.1
20260905111253 77 101 13.0 20.0 0.00 0.03 0.00 79 1012.3
20260905110739 77 74 8.0 21.0 0.00 0.03 0.00 80 1012.0
20260905110240 77 71 9.0 23.0 0.00 0.03 0.00 79 1012.3
20260905105740 77 80 8.0 23.0 0.00 0.03 0.00 78 1012.3
20260905105240 77 98 10.0 20.0 0.00 0.03 0.00 78 1012.2
20260905104739 78 145 9.0 29.0 0.00 0.03 0.00 78 1012.4
20260905104241 77 72 13.0 29.0 0.00 0.03 0.00 77 1012.2
20260905103739 78 112 10.0 17.0 0.00 0.03 0.00 78 1012.6
20260905103242 78 91 13.0 20.0 0.00 0.03 0.00 79 1012.6
20260905102741 78 49 9.0 20.0 0.00 0.03 0.00 79 1012.5
20260905102240 78 73 13.0 16.0 0.00 0.03 0.00 79 1012.5
20260905101739 78 95 8.0 17.0 0.00 0.03 0.00 79 1012.5
20260905101239 78 109 11.0 19.0 0.00 0.03 0.00 79 1012.4
20260905100739 77 62 10.0 19.0 0.00 0.03 0.00 78 1012.7
20260905100239 77 59 14.0 19.0 0.00 0.03 0.00 79 1012.8
20260905100011 77 85 13.0 23.0 0.00 0.03 0.03 80 1012.8
20260905095239 77 99 9.0 23.0 0.00 0.03 0.03 79 1012.8
20260905094740 77 77 8.0 19.0 0.00 0.03 0.03 80 1012.9
20260905094240 77 77 8.0 23.0 0.00 0.03 0.03 80 1013.1
20260905093739 77 54 9.0 23.0 0.00 0.03 0.03 80 1013.0
20260905093239 77 79 13.0 23.0 0.00 0.03 0.03 78 1013.3
20260905093010 77 81 12.0 21.0 0.00 0.03 0.03 79 1013.1
20260905092239 78 19 10.0 21.0 0.00 0.03 0.03 80 1013.2
20260905091739 78 56 15.0 19.0 0.00 0.03 0.03 79 1013.1
20260905091511 78 120 6.0 19.0 0.00 0.03 0.03 79 1013.0
20260905090740 78 106 11.0 17.0 0.00 0.03 0.03 79 1013.2
20260905090241 78 73 8.0 23.0 0.00 0.03 0.03 78 1013.4
20260905085742 78 87 11.0 23.0 0.00 0.03 0.03 78 1013.5
20260905085512 78 89 8.0 17.0 0.00 0.03 0.03 79 1013.2
20260905084740 78 87 6.0 17.0 0.00 0.03 0.03 79 1013.4
20260905084241 78 20 10.0 17.0 0.00 0.03 0.03 78 1013.4
20260905083740 78 98 11.0 17.0 0.00 0.03 0.03 78 1013.3
20260905083240 78 125 11.0 17.0 0.00 0.03 0.03 78 1013.6
20260905082741 78 97 4.0 17.0 0.00 0.03 0.03 78 1013.6
20260905082240 78 98 7.0 19.0 0.00 0.03 0.03 78 1013.6
20260905082010 78 50 10.0 21.0 0.00 0.03 0.03 77 1013.5
20260905081255 78 106 8.0 21.0 0.00 0.03 0.03 78 1013.5
20260905080740 78 98 7.0 19.0 0.00 0.04 0.03 78 1013.7
20260905080240 78 78 8.0 20.0 0.00 0.04 0.03 78 1013.7
20260905075739 78 81 8.0 20.0 0.00 0.04 0.03 78 1013.8
20260905075238 78 81 3.0 20.0 0.00 0.04 0.03 79 1013.6
20260905074734 78 89 6.0 21.0 0.00 0.07 0.03 78 1013.6
20260905074728 78 107 7.0 20.0 0.00 0.04 0.03 79 1013.5
20260905073729 78 61 8.0 21.0 0.00 0.07 0.03 78 1013.8
20260905073227 78 120 12.0 20.0 0.00 0.07 0.03 78 1013.7
20260905072728 78 92 11.0 20.0 0.00 0.07 0.03 78 1013.6
20260905072228 78 77 10.0 20.0 0.00 0.07 0.03 78 1013.5
20260905071728 78 78 7.0 20.0 0.00 0.07 0.03 78 1013.6
20260905071228 77 76 9.0 17.0 0.00 0.07 0.03 77 1013.7
20260905070728 78 87 6.0 17.0 0.00 0.07 0.03 78 1013.5
20260905070227 78 82 5.0 17.0 0.00 0.07 0.03 78 1013.5
20260905065727 78 122 7.0 17.0 0.00 0.07 0.03 78 1013.5
20260905065458 78 59 6.0 15.0 0.00 0.07 0.03 78 1013.4
20260905064728 78 56 8.0 16.0 0.00 0.07 0.03 78 1013.4
20260905064228 78 85 12.0 23.0 0.00 0.07 0.03 78 1013.2
20260905063728 78 64 9.0 23.0 0.00 0.07 0.03 77 1013.1
20260905063501 78 111 8.0 17.0 0.00 0.07 0.03 77 1013.0
20260905062729 78 74 10.0 20.0 0.00 0.07 0.03 77 1013.1
20260905062227 78 75 7.0 21.0 0.00 0.07 0.03 77 1013.2
20260905061728 78 55 6.0 21.0 0.00 0.07 0.03 76 1012.9
20260905061228 78 85 5.0 19.0 0.00 0.07 0.03 76 1013.0
20260905060727 78 97 9.0 19.0 0.00 0.07 0.03 76 1012.9
20260905060227 78 62 11.0 17.0 0.00 0.07 0.03 76 1012.9
20260905055729 78 86 11.0 19.0 0.00 0.07 0.03 75 1013.0
20260905055228 78 82 10.0 19.0 0.00 0.07 0.03 74 1013.0
20260905054728 78 78 7.0 17.0 0.00 0.07 0.03 74 1012.7
20260905054458 78 81 4.0 17.0 0.00 0.07 0.03 74 1012.7
20260905053727 78 59 6.0 19.0 0.00 0.07 0.03 74 1012.8
20260905053228 78 98 11.0 19.0 0.00 0.07 0.03 74 1012.9
20260905052728 78 59 9.0 15.0 0.00 0.07 0.03 75 1012.7
20260905052500 78 119 9.0 20.0 0.00 0.07 0.03 75 1012.5
20260905051729 78 104 11.0 20.0 0.00 0.07 0.03 75 1012.4
20260905051227 78 85 11.0 19.0 0.00 0.07 0.03 75 1012.2
20260905050728 78 127 10.0 19.0 0.00 0.07 0.03 73 1012.6
20260905050227 78 97 6.0 19.0 0.00 0.07 0.03 71 1012.4
20260905045728 78 92 2.0 21.0 0.00 0.07 0.03 71 1012.3
20260905045229 78 82 4.0 17.0 0.00 0.07 0.03 70 1012.3
20260905044727 78 106 9.0 20.0 0.00 0.07 0.03 72 1012.3
20260905044227 78 73 8.0 20.0 0.00 0.07 0.03 71 1012.1
20260905043728 78 57 9.0 19.0 0.00 0.07 0.03 72 1012.0
20260905043228 78 68 5.0 16.0 0.00 0.07 0.03 71 1012.0
20260905042728 78 93 0.0 20.0 0.00 0.07 0.03 69 1012.0
20260905042228 78 109 2.0 20.0 0.00 0.07 0.03 70 1011.8
20260905041727 79 91 9.0 16.0 0.00 0.07 0.03 71 1012.0
20260905041458 79 78 8.0 16.0 0.00 0.07 0.03 71 1011.7
20260905041334 79 113 8.0 16.0 0.00 0.07 0.03 71 1011.9
20260905040459 79 65 6.0 19.0 0.00 0.07 0.03 71 1011.7
20260905035729 79 110 0.0 19.0 0.00 0.07 0.03 71 1011.6
20260905035228 79 112 6.0 19.0 0.00 0.07 0.03 70 1011.7
20260905034728 79 102 0.0 16.0 0.00 0.07 0.03 69 1011.7
20260905034228 80 111 6.0 15.0 0.00 0.07 0.03 69 1011.6
20260905034004 80 85 0.0 20.0 0.00 0.07 0.03 70 1011.9
20260905033228 80 105 7.0 20.0 0.00 0.07 0.03 69 1011.5
20260905032729 80 89 9.0 20.0 0.00 0.07 0.03 69 1011.6
20260905032458 80 110 11.0 20.0 0.00 0.07 0.03 69 1011.5
20260905031728 80 93 6.0 17.0 0.00 0.07 0.03 66 1011.6
20260905031229 80 90 4.0 17.0 0.00 0.07 0.03 70 1011.7
20260905030729 80 68 3.0 15.0 0.00 0.07 0.03 68 1011.8
20260905030228 80 78 2.0 17.0 0.00 0.07 0.03 68 1011.6
20260905025729 80 64 1.0 17.0 0.00 0.07 0.03 67 1011.8
20260905025458 80 61 12.0 23.0 0.00 0.07 0.03 68 1011.6
20260905024728 81 66 2.0 23.0 0.00 0.07 0.03 67 1011.7
20260905024228 82 86 8.0 17.0 0.00 0.07 0.03 67 1011.8
20260905023727 81 104 11.0 19.0 0.00 0.07 0.03 66 1011.5
20260905023229 81 37 6.0 20.0 0.00 0.07 0.03 65 1011.6
20260905022727 81 112 13.0 20.0 0.00 0.07 0.03 67 1011.6
20260905022227 81 72 8.0 19.0 0.00 0.07 0.03 67 1011.7
20260905021727 81 127 13.0 17.0 0.00 0.07 0.03 67 1011.6
20260905021227 82 120 13.0 21.0 0.00 0.07 0.03 67 1011.6
20260905020959 82 150 11.0 21.0 0.00 0.07 0.03 67 1011.7
20260905020228 82 64 9.0 17.0 0.00 0.07 0.03 66 1011.6
20260905015728 82 83 10.0 15.0 0.00 0.07 0.03 68 1011.6
20260905015227 82 96 11.0 17.0 0.00 0.07 0.03 66 1011.3
20260905014727 82 74 11.0 17.0 0.00 0.07 0.03 67 1011.6
20260905014227 82 114 9.0 17.0 0.00 0.07 0.03 62 1011.6
20260905013730 82 21 8.0 17.0 0.00 0.07 0.03 64 1011.9
20260905013229 82 53 8.0 24.0 0.00 0.07 0.03 63 1011.6
20260905012729 82 83 9.0 24.0 0.00 0.07 0.03 64 1011.5
20260905012228 82 106 8.0 17.0 0.00 0.07 0.03 65 1011.5
20260905011729 82 66 11.0 16.0 0.00 0.07 0.03 64 1011.7
20260905011227 82 76 6.0 19.0 0.00 0.07 0.03 66 1011.7
20260905010733 82 74 10.0 21.0 0.00 0.07 0.03 67 1011.4
20260905010728 82 41 8.0 19.0 0.00 0.07 0.03 65 1011.6
20260905005728 83 75 6.0 21.0 0.00 0.07 0.03 65 1011.7
20260905005228 82 93 14.0 21.0 0.00 0.07 0.03 63 1011.6
20260905004728 82 78 10.0 21.0 0.00 0.07 0.03 64 1011.9
20260905004227 82 89 12.0 21.0 0.00 0.07 0.03 65 1011.4
20260905003728 83 77 12.0 20.0 0.00 0.07 0.03 62 1011.7
20260905003228 82 51 13.0 25.0 0.00 0.07 0.03 66 1011.7
20260905002958 83 78 13.0 20.0 0.00 0.07 0.03 64 1011.7
20260905002228 82 95 11.0 21.0 0.00 0.07 0.03 63 1011.8
20260905001729 83 85 11.0 21.0 0.00 0.07 0.03 65 1012.1
20260905001227 83 99 13.0 24.0 0.00 0.07 0.03 65 1011.9
20260905000727 83 97 8.0 24.0 0.00 0.07 0.03 65 1012.0
20260905000501 83 107 11.0 21.0 0.00 0.07 0.03 64 1012.2
20260904235727 83 116 9.0 21.0 0.00 0.07 0.03 65 1012.4
20260904235228 83 105 11.0 23.0 0.00 0.07 0.03 64 1012.4
20260904234728 83 70 13.0 23.0 0.00 0.07 0.03 63 1012.5
20260904234228 83 112 11.0 20.0 0.00 0.07 0.03 64 1012.6
20260904233959 83 83 12.0 24.0 0.00 0.07 0.03 63 1012.7
20260904233228 83 91 13.0 24.0 0.00 0.07 0.03 62 1012.7
20260904232959 83 89 15.0 21.0 0.00 0.07 0.03 63 1013.0
20260904232228 83 90 9.0 26.0 0.00 0.07 0.03 64 1012.7
20260904231733 83 83 13.0 24.0 0.00 0.07 0.03 67 1013.0
20260904231727 83 99 11.0 26.0 0.00 0.07 0.03 66 1013.0
20260904230727 83 99 8.0 24.0 0.00 0.07 0.03 70 1012.9
20260904230227 83 86 13.0 23.0 0.00 0.07 0.03 69 1012.9
20260904225728 83 52 9.0 23.0 0.00 0.07 0.03 68 1012.9
20260904225234 82 122 12.0 25.0 0.00 0.07 0.03 69 1013.0
20260904225228 83 84 11.0 25.0 0.00 0.07 0.03 69 1013.0
20260904224229 83 132 12.0 23.0 0.00 0.07 0.03 67 1013.1
20260904223727 83 77 8.0 24.0 0.00 0.07 0.03 68 1013.1
20260904223227 83 104 10.0 24.0 0.00 0.07 0.03 68 1013.2
20260904222727 83 61 8.0 23.0 0.00 0.07 0.03 68 1013.7
20260904222229 83 102 13.0 25.0 0.00 0.07 0.03 69 1013.1
20260904221727 82 96 13.0 26.0 0.00 0.07 0.03 70 1013.5
20260904221228 82 102 13.0 26.0 0.00 0.07 0.03 69 1013.3
20260904220728 83 77 10.0 24.0 0.00 0.07 0.03 68 1013.4
20260904220228 83 71 15.0 26.0 0.00 0.07 0.03 68 1013.5
20260904215729 83 79 12.0 26.0 0.00 0.07 0.03 69 1013.5
20260904215228 83 53 9.0 23.0 0.00 0.07 0.03 71 1013.5
20260904214728 83 102 14.0 23.0 0.00 0.07 0.03 71 1013.5
20260904214227 82 83 16.0 23.0 0.00 0.07 0.03 70 1013.6
20260904213727 82 93 16.0 29.0 0.00 0.07 0.03 71 1013.6
20260904213227 82 79 19.0 26.0 0.00 0.07 0.03 71 1013.2
20260904212729 82 75 14.0 26.0 0.00 0.07 0.03 72 1013.8
20260904212228 82 84 14.0 26.0 0.00 0.07 0.03 72 1013.6
20260904211729 82 46 8.0 26.0 0.00 0.07 0.03 72 1013.6
20260904211228 81 120 13.0 24.0 0.00 0.07 0.03 71 1013.6
20260904210727 82 84 14.0 24.0 0.00 0.07 0.03 71 1013.6
20260904210228 82 79 11.0 21.0 0.00 0.07 0.03 71 1014.0
20260904205727 82 72 11.0 23.0 0.00 0.07 0.03 72 1014.0
20260904205227 81 93 11.0 26.0 0.00 0.07 0.03 70 1013.6
20260904204728 81 59 16.0 26.0 0.00 0.07 0.03 71 1013.7
20260904204500 81 65 12.0 24.0 0.00 0.07 0.03 72 1013.9
20260904204336 81 77 12.0 21.0 0.00 0.07 0.03 73 1013.7
20260904203458 81 47 12.0 23.0 0.00 0.07 0.03 73 1013.7
20260904202727 80 84 13.0 23.0 0.00 0.07 0.03 71 1013.8
20260904202229 81 70 14.0 23.0 0.00 0.07 0.03 73 1013.8
20260904201959 81 87 11.0 23.0 0.00 0.07 0.03 74 1013.5
20260904201228 81 84 12.0 23.0 0.00 0.07 0.03 73 1013.7
20260904200730 80 88 9.0 23.0 0.00 0.07 0.03 73 1013.5
20260904200228 80 62 8.0 25.0 0.00 0.07 0.03 74 1013.5
20260904200001 80 69 17.0 25.0 0.00 0.07 0.03 73 1013.4
20260904195228 80 85 9.0 24.0 0.00 0.07 0.03 74 1013.6
20260904194727 80 84 11.0 21.0 0.00 0.07 0.03 74 1013.5
20260904194227 80 109 13.0 21.0 0.00 0.07 0.03 75 1013.5
20260904193727 80 40 9.0 28.0 0.00 0.07 0.03 74 1013.4
20260904193227 80 77 14.0 28.0 0.00 0.07 0.03 74 1013.5
20260904192727 80 78 9.0 25.0 0.00 0.07 0.03 74 1013.6
20260904192228 79 52 13.0 25.0 0.00 0.07 0.03 74 1013.6
20260904191728 79 65 18.0 26.0 0.00 0.07 0.03 73 1013.5
20260904191228 79 81 17.0 26.0 0.00 0.07 0.03 73 1013.9
20260904190727 79 95 9.0 28.0 0.00 0.07 0.03 72 1013.7
20260904190459 79 67 13.0 28.0 0.00 0.07 0.03 73 1013.5
20260904185959 79 92 11.0 23.0 0.00 0.07 0.03 72 1013.6
20260904185227 79 74 13.0 23.0 0.00 0.07 0.03 74 1013.5
20260904184727 78 65 11.0 23.0 0.00 0.07 0.03 76 1013.6
20260904184227 78 103 6.0 25.0 0.00 0.07 0.03 76 1013.4
20260904183727 78 82 11.0 25.0 0.00 0.07 0.03 75 1013.6
20260904183227 78 51 16.0 24.0 0.00 0.07 0.03 76 1013.4
20260904182727 78 69 11.0 24.0 0.00 0.07 0.03 77 1013.7
20260904182228 78 80 11.0 20.0 0.00 0.07 0.03 76 1013.2
20260904181728 78 69 11.0 25.0 0.00 0.07 0.03 76 1013.4
20260904181227 78 94 16.0 25.0 0.00 0.07 0.03 75 1013.2